Robstown, TX

12:23 AM CDT on May 28, 2017 (GMT -0500)
Robstown

Weather History for KRBO - October, 2011

Change the Weather History Date:

Monday, October 3, 2011

  Actual Average (KCRP) Record (KCRP)
Temperature  
Mean Temperature 74 °F -  
Max Temperature 85 °F 84 °F 94 °F (1990)
Min Temperature 63 °F 66 °F 54 °F (1961)
Cooling Degree Days 9    
Growing Degree Days 24 (Base 50)    
Moisture  
Dew Point 55 °F    
Average Humidity 52    
Maximum Humidity 78    
Minimum Humidity 30    
Precipitation  
Precipitation 0.00 in - - ()
Sea Level Pressure  
Sea Level Pressure 30.15 in    
Wind  
Wind Speed 6 mph (East)    
Max Wind Speed 20 mph    
Max Gust Speed 23 mph    
Visibility 10 miles    
Events      
Averages and records for this station are not official NWS values.
T = Trace of Precipitation, MM = Missing Value Source: NWS Daily Summary

Daily Weather History Graph

Daily Weather History Graph

Search for Another Location

Airport or City:

Trip Planner

Search our weather history database for the weather conditions in past years. The results will help you decide how hot, cold, wet, or windy it might be!

Date:

Astronomy

Oct. 03, 2011 Rise Set
Actual Time 7:24 AM CDT 7:14 PM CDT
Civil Twilight 7:01 AM CDT 7:38 PM CDT
Nautical Twilight 6:33 AM CDT 8:05 PM CDT
Astronomical Twilight 6:06 AM CDT 8:32 PM CDT
Moon 1:56 PM CDT (10/3) No Moon Set
Length of Visible Light 12h 37m
Length of Day
11h 50m
Waxing Crescent, 45% of the Moon is Illuminated
Oct 3
Waxing Crescent
Oct 3
First Quarter
Oct 11
Full
Oct 19
Last Quarter
Oct 26
New

Hourly Weather History & Observations

Time (CDT) Temp. Heat Index Dew Point Humidity Pressure Visibility Wind Dir Wind Speed Gust Speed Precip Events Conditions
12:15 AM 69.1 °F - 54.1 °F 59% 30.14 in 10.0 mi SE 3.5 mph - N/A   Clear
12:35 AM 68.5 °F - 54.7 °F 61% 30.14 in 10.0 mi SE 3.5 mph - N/A   Clear
12:55 AM 68.0 °F - 54.5 °F 62% 30.14 in 10.0 mi Calm Calm - N/A   Clear
1:15 AM 67.5 °F - 54.7 °F 64% 30.14 in 10.0 mi Calm Calm - N/A   Clear
1:35 AM 66.9 °F - 54.5 °F 64% 30.14 in 10.0 mi SE 3.5 mph - N/A   Clear
1:55 AM 66.9 °F - 55.2 °F 66% 30.14 in 10.0 mi ESE 4.6 mph - N/A   Clear
2:15 AM 67.1 °F - 55.6 °F 66% 30.13 in 10.0 mi ESE 4.6 mph - N/A   Clear
2:35 AM 67.5 °F - 55.8 °F 66% 30.13 in 10.0 mi East 3.5 mph - N/A   Clear
2:55 AM 67.8 °F - 56.8 °F 68% 30.13 in 10.0 mi ESE 4.6 mph - N/A   Clear
3:15 AM 67.5 °F - 57.2 °F 70% 30.13 in 10.0 mi East 3.5 mph - N/A   Clear
3:35 AM 67.1 °F - 56.8 °F 70% 30.12 in 10.0 mi East 4.6 mph - N/A   Clear
3:55 AM 67.6 °F - 57.2 °F 69% 30.12 in 10.0 mi East 3.5 mph - N/A   Clear
4:15 AM 67.5 °F - 57.7 °F 71% 30.12 in 10.0 mi East 4.6 mph - N/A   Clear
4:35 AM 66.6 °F - 57.4 °F 72% 30.12 in 10.0 mi East 3.5 mph - N/A   Clear
4:55 AM 65.8 °F - 57.2 °F 74% 30.12 in 10.0 mi East 5.8 mph - N/A   Clear
5:15 AM 64.8 °F - 56.3 °F 74% 30.12 in 10.0 mi East 4.6 mph - N/A   Clear
5:35 AM 65.1 °F - 56.3 °F 73% 30.12 in 10.0 mi East 4.6 mph - N/A   Clear
5:55 AM 65.7 °F - 56.5 °F 72% 30.13 in 10.0 mi East 4.6 mph - N/A   Clear
6:15 AM 65.1 °F - 55.8 °F 72% 30.13 in 10.0 mi East 3.5 mph - N/A   Clear
6:35 AM 65.5 °F - 55.8 °F 71% 30.14 in 10.0 mi ENE 4.6 mph - N/A   Clear
6:55 AM 65.3 °F - 55.9 °F 72% 30.14 in 10.0 mi ENE 3.5 mph - N/A   Clear
7:15 AM 64.2 °F - 56.5 °F 76% 30.15 in 10.0 mi Calm Calm - N/A   Clear
7:55 AM 63.1 °F - 56.3 °F 78% 30.16 in 10.0 mi NE 3.5 mph - N/A   Clear
8:15 AM 64.4 °F - 57.4 °F 78% 30.17 in 10.0 mi Calm Calm - N/A   Clear
8:35 AM 67.8 °F - 58.8 °F 73% 30.18 in 10.0 mi Calm Calm - N/A   Clear
8:55 AM 71.6 °F - 58.3 °F 63% 30.18 in 10.0 mi Calm Calm - N/A   Clear
9:15 AM 74.5 °F - 57.6 °F 55% 30.19 in 10.0 mi NE 3.5 mph - N/A   Clear
9:35 AM 76.1 °F - 56.5 °F 50% 30.20 in 10.0 mi NE 4.6 mph - N/A   Clear
9:55 AM 77.7 °F - 55.2 °F 46% 30.20 in 10.0 mi ENE 5.8 mph - N/A   Clear
10:55 AM 81.7 °F 80.9 °F 53.2 °F 37% 30.20 in 10.0 mi NE 10.4 mph 17.3 mph N/A   Clear
11:15 AM 82.4 °F - 52.0 °F 35% 30.21 in 10.0 mi ESE 9.2 mph - N/A   Clear
11:35 AM 82.9 °F - 51.3 °F 33% 30.20 in 10.0 mi East 4.6 mph 17.3 mph N/A   Clear
11:55 AM 83.8 °F - 52.3 °F 34% 30.20 in 10.0 mi East 11.5 mph - N/A   Clear
12:15 PM 84.0 °F - 51.6 °F 33% 30.19 in 10.0 mi East 8.1 mph - N/A   Clear
12:35 PM 84.9 °F - 50.7 °F 31% 30.19 in 10.0 mi East 11.5 mph 19.6 mph N/A   Clear
1:15 PM 85.1 °F - 50.9 °F 31% 30.17 in 10.0 mi East 19.6 mph 23.0 mph N/A   Clear
1:35 PM 85.1 °F - 51.6 °F 31% 30.16 in 10.0 mi ESE 19.6 mph 23.0 mph N/A   Clear
1:55 PM 85.6 °F - 52.2 °F 31% 30.16 in 10.0 mi SE 10.4 mph 21.9 mph N/A   Clear
2:35 PM 85.6 °F - 52.0 °F 31% 30.14 in 10.0 mi East 11.5 mph 21.9 mph N/A   Clear
2:55 PM 85.1 °F - 51.1 °F 31% 30.14 in 10.0 mi ESE 13.8 mph 19.6 mph N/A   Clear
3:15 PM 85.5 °F - 50.9 °F 30% 30.13 in 10.0 mi East 17.3 mph 20.7 mph N/A   Clear
3:35 PM 85.5 °F - 50.4 °F 30% 30.13 in 10.0 mi ESE 10.4 mph 16.1 mph N/A   Clear
3:55 PM 85.3 °F - 50.5 °F 30% 30.12 in 10.0 mi East 11.5 mph 18.4 mph N/A   Clear
4:15 PM 85.1 °F - 51.6 °F 31% 30.12 in 10.0 mi ENE 13.8 mph 19.6 mph N/A   Clear
4:35 PM 84.9 °F - 50.5 °F 30% 30.12 in 10.0 mi ENE 12.7 mph 23.0 mph N/A   Clear
4:55 PM 84.4 °F - 50.9 °F 31% 30.12 in 10.0 mi East 12.7 mph 17.3 mph N/A   Clear
5:15 PM 84.2 °F - 52.3 °F 33% 30.12 in 10.0 mi East 13.8 mph 19.6 mph N/A   Clear
5:35 PM 83.5 °F - 52.2 °F 34% 30.12 in 10.0 mi East 12.7 mph 17.3 mph N/A   Clear
5:55 PM 82.9 °F - 52.9 °F 35% 30.12 in 10.0 mi ENE 12.7 mph 19.6 mph N/A   Clear
6:15 PM 82.0 °F 81.4 °F 54.7 °F 39% 30.12 in 10.0 mi East 13.8 mph - N/A   Clear
6:35 PM 81.3 °F 81.0 °F 55.2 °F 41% 30.12 in 10.0 mi East 11.5 mph 17.3 mph N/A   Clear
6:55 PM 80.2 °F 80.3 °F 55.0 °F 42% 30.13 in 10.0 mi East 12.7 mph - N/A   Clear
7:35 PM 78.3 °F - 55.6 °F 45% 30.13 in 10.0 mi East 11.5 mph - N/A   Clear
7:55 PM 77.7 °F - 55.8 °F 47% 30.13 in 10.0 mi East 10.4 mph - N/A   Clear
8:15 PM 77.0 °F - 56.5 °F 49% 30.14 in 10.0 mi East 6.9 mph - N/A   Clear
8:35 PM 76.1 °F - 56.7 °F 51% 30.14 in 10.0 mi East 5.8 mph - N/A   Clear
8:55 PM 74.8 °F - 56.5 °F 53% 30.14 in 10.0 mi East 5.8 mph - N/A   Clear
9:15 PM 74.1 °F - 56.5 °F 54% 30.15 in 10.0 mi East 4.6 mph - N/A   Clear
9:35 PM 73.0 °F - 56.5 °F 56% 30.15 in 10.0 mi East 4.6 mph - N/A   Clear
9:55 PM 72.5 °F - 56.5 °F 57% 30.15 in 10.0 mi East 4.6 mph - N/A   Clear
10:15 PM 72.1 °F - 56.5 °F 58% 30.15 in 10.0 mi East 4.6 mph - N/A   Clear
10:35 PM 71.4 °F - 56.7 °F 60% 30.15 in 10.0 mi ENE 5.8 mph - N/A   Clear
10:55 PM 71.1 °F - 56.8 °F 61% 30.15 in 10.0 mi East 6.9 mph - N/A   Clear
11:35 PM 70.5 °F - 56.7 °F 61% 30.15 in 10.0 mi ENE 5.8 mph - N/A   Clear
11:55 PM 71.1 °F - 56.8 °F 61% 30.15 in 10.0 mi ENE 5.8 mph - N/A   Clear